This is the latest recevied weather packets stored in our database for station/object YT1XN-8. If no packets are shown the sender has not sent any weather packets the latest 10 day(s).
| Time | Temp. | Humidity | Pressure | Rain* | Wind** | Luminosity | Snow |
|---|---|---|---|---|---|---|---|
| 1777637320 | 17.22° C | 46% | 1026.3 hPa | 0 mm | - | - | - |
| 1777636841 | 17.22° C | 47% | 1026.3 hPa | 0 mm | - | - | - |
| 1777636660 | 17.22° C | 46% | 1026.4 hPa | 0 mm | - | - | - |
| 1777636243 | 16.67° C | 52% | 1026.5 hPa | 0 mm | - | - | - |
| 1777636000 | 16.11° C | 49% | 1026.4 hPa | 0 mm | - | - | - |
| 1777635641 | 15.56° C | 53% | 1026.6 hPa | 0 mm | - | - | - |
| 1777635340 | 16.11° C | 48% | 1026.8 hPa | 0 mm | - | - | - |
| 1777635041 | 16.67° C | 48% | 1026.7 hPa | 0 mm | - | - | - |
| 1777634680 | 17.22° C | 50% | 1026.7 hPa | 0 mm | - | - | - |
| 1777634441 | 17.22° C | 51% | 1026.7 hPa | 0 mm | - | - | - |
| 1777634020 | 17.22° C | 52% | 1026.8 hPa | 0 mm | - | - | - |
| 1777633841 | 17.22° C | 48% | 1026.8 hPa | 0 mm | - | - | - |
| 1777633360 | 16.67° C | 51% | 1026.8 hPa | 0 mm | - | - | - |
| 1777633242 | 16.67° C | 53% | 1026.8 hPa | 0 mm | - | - | - |
| 1777632700 | 16.11° C | 53% | 1027 hPa | 0 mm | - | - | - |
| 1777632642 | 16.11° C | 56% | 1027 hPa | 0 mm | - | - | - |
| 1777632040 | 15.56° C | 57% | 1027 hPa | 0 mm | - | - | - |
| 1777631443 | 15.56° C | 59% | 1027.1 hPa | 0 mm | - | - | - |
| 1777631381 | 15.56° C | 57% | 1027.1 hPa | 0 mm | - | - | - |
| 1777630843 | 14.44° C | 61% | 1027.2 hPa | 0 mm | - | - | - |
| 1777630721 | 14.44° C | 60% | 1027.2 hPa | 0 mm | - | - | - |
| 1777630242 | 14.44° C | 58% | 1027.4 hPa | 0 mm | - | - | - |
| 1777630061 | 14.44° C | 60% | 1027.3 hPa | 0 mm | - | - | - |
| 1777629642 | 13.89° C | 58% | 1027.4 hPa | 0 mm | - | - | - |
| 1777629401 | 14.44° C | 57% | 1027.5 hPa | 0 mm | - | - | - |
* Rain latest hour (hover to see other rain measurements)
** Current wind speed in m/s (hover to see current wind gust speed)